Year,Month,Day,Hour,Minute,Value (Times are PST for barometer in hPa)
2013,09,28,00,00,1006.71
2013,09,28,00,01,1006.67
2013,09,28,00,02,1006.67
2013,09,28,00,03,1006.71
2013,09,28,00,04,1006.71
2013,09,28,00,05,1006.71
2013,09,28,00,06,1006.71
2013,09,28,00,07,1006.71
2013,09,28,00,08,1006.67
2013,09,28,00,09,1006.71
2013,09,28,00,10,1006.67
2013,09,28,00,11,1006.67
2013,09,28,00,12,1006.57
2013,09,28,00,13,1006.57
2013,09,28,00,14,1006.57
2013,09,28,00,15,1006.47
2013,09,28,00,16,1006.47
2013,09,28,00,17,1006.44
2013,09,28,00,18,1006.44
2013,09,28,00,19,1006.47
2013,09,28,00,20,1006.47
2013,09,28,00,21,1006.47
2013,09,28,00,22,1006.47
2013,09,28,00,23,1006.44
2013,09,28,00,24,1006.40
2013,09,28,00,25,1006.40
2013,09,28,00,26,1006.33
2013,09,28,00,27,1006.33
2013,09,28,00,28,1006.30
2013,09,28,00,29,1006.27
2013,09,28,00,30,1006.23
2013,09,28,00,31,1006.23
2013,09,28,00,32,1006.23
2013,09,28,00,33,1006.23
2013,09,28,00,34,1006.13
2013,09,28,00,35,1006.13
2013,09,28,00,36,1006.13
2013,09,28,00,37,1006.10
2013,09,28,00,38,1006.06
2013,09,28,00,39,1006.10
2013,09,28,00,40,1006.13
2013,09,28,00,41,1006.06
2013,09,28,00,42,1006.03
2013,09,28,00,43,1005.99
2013,09,28,00,44,1005.99
2013,09,28,00,45,1006.03
2013,09,28,00,46,1005.96
2013,09,28,00,47,1005.96
2013,09,28,00,48,1005.93
2013,09,28,00,49,1005.93
2013,09,28,00,50,1005.93
2013,09,28,00,51,1005.89
2013,09,28,00,52,1005.89
2013,09,28,00,53,1005.86
2013,09,28,00,54,1005.89
2013,09,28,00,55,1005.86
2013,09,28,00,56,1005.83
2013,09,28,00,57,1005.86
2013,09,28,00,58,1005.83
2013,09,28,00,59,1005.83
2013,09,28,01,00,1005.79
2013,09,28,01,01,1005.76
2013,09,28,01,02,1005.72
2013,09,28,01,03,1005.72
2013,09,28,01,04,1005.69
2013,09,28,01,05,1005.69
2013,09,28,01,06,1005.72
2013,09,28,01,07,1005.69
2013,09,28,01,08,1005.66
2013,09,28,01,09,1005.69
2013,09,28,01,10,1005.62
2013,09,28,01,11,1005.62
2013,09,28,01,12,1005.72
2013,09,28,01,13,1005.69
2013,09,28,01,14,1005.69
2013,09,28,01,15,1005.62
2013,09,28,01,16,1005.66
2013,09,28,01,17,1005.62
2013,09,28,01,18,1005.62
2013,09,28,01,19,1005.69
2013,09,28,01,20,1005.65
2013,09,28,01,21,1005.52
2013,09,28,01,22,1005.59
2013,09,28,01,23,1005.55
2013,09,28,01,24,1005.55
2013,09,28,01,25,1005.55
2013,09,28,01,26,1005.59
2013,09,28,01,27,1005.55
2013,09,28,01,28,1005.49
2013,09,28,01,29,1005.55
2013,09,28,01,30,1005.55
2013,09,28,01,31,1005.45
2013,09,28,01,32,1005.45
2013,09,28,01,33,1005.39
2013,09,28,01,34,1005.39
2013,09,28,01,35,1005.45
2013,09,28,01,36,1005.45
2013,09,28,01,37,1005.39
2013,09,28,01,38,1005.42
2013,09,28,01,39,1005.39
2013,09,28,01,40,1005.39
2013,09,28,01,41,1005.42
2013,09,28,01,42,1005.35
2013,09,28,01,43,1005.32
2013,09,28,01,44,1005.35
2013,09,28,01,45,1005.32
2013,09,28,01,46,1005.32
2013,09,28,01,47,1005.25
2013,09,28,01,48,1005.25
2013,09,28,01,49,1005.25
2013,09,28,01,50,1005.25
2013,09,28,01,51,1005.11
2013,09,28,01,52,1005.15
2013,09,28,01,53,1005.05
2013,09,28,01,54,1005.05
2013,09,28,01,55,1005.05
2013,09,28,01,56,1004.98
2013,09,28,01,57,1004.95
2013,09,28,01,58,1004.91
2013,09,28,01,59,1004.91
2013,09,28,02,00,1004.88
2013,09,28,02,01,1004.81
2013,09,28,02,02,1004.81
2013,09,28,02,03,1004.71
2013,09,28,02,04,1004.74
2013,09,28,02,05,1004.71
2013,09,28,02,06,1004.71
2013,09,28,02,07,1004.67
2013,09,28,02,08,1004.61
2013,09,28,02,09,1004.61
2013,09,28,02,10,1004.67
2013,09,28,02,11,1004.78
2013,09,28,02,12,1004.78
2013,09,28,02,13,1004.81
2013,09,28,02,14,1004.71
2013,09,28,02,15,1004.64
2013,09,28,02,16,1004.47
2013,09,28,02,17,1004.47
2013,09,28,02,18,1004.47
2013,09,28,02,19,1004.50
2013,09,28,02,20,1004.54
2013,09,28,02,21,1004.61
2013,09,28,02,22,1004.47
2013,09,28,02,23,1004.40
2013,09,28,02,24,1004.33
2013,09,28,02,25,1004.17
2013,09,28,02,26,1004.17
2013,09,28,02,27,1004.17
2013,09,28,02,28,1004.23
2013,09,28,02,29,1004.17
2013,09,28,02,30,1004.13
2013,09,28,02,31,1004.10
2013,09,28,02,32,1004.17
2013,09,28,02,33,1004.06
2013,09,28,02,34,1004.03
2013,09,28,02,35,1004.00
2013,09,28,02,36,1004.00
2013,09,28,02,37,1003.90
2013,09,28,02,38,1003.90
2013,09,28,02,39,1003.86
2013,09,28,02,40,1003.76
2013,09,28,02,41,1003.59
2013,09,28,02,42,1003.49
2013,09,28,02,43,1003.49
2013,09,28,02,44,1003.39
2013,09,28,02,45,1003.39
2013,09,28,02,46,1003.35
2013,09,28,02,47,1003.46
2013,09,28,02,48,1003.46
2013,09,28,02,49,1003.42
2013,09,28,02,50,1003.39
2013,09,28,02,51,1003.39
2013,09,28,02,52,1003.39
2013,09,28,02,53,1003.32
2013,09,28,02,54,1003.25
2013,09,28,02,55,1003.35
2013,09,28,02,56,1003.29
2013,09,28,02,57,1003.22
2013,09,28,02,58,1003.15
2013,09,28,02,59,1003.08
2013,09,28,03,00,1003.01
2013,09,28,03,01,1002.98
2013,09,28,03,02,1002.98
2013,09,28,03,03,1002.95
2013,09,28,03,04,1002.91
2013,09,28,03,05,1002.88
2013,09,28,03,06,1002.88
2013,09,28,03,07,1002.81
2013,09,28,03,08,1002.85
2013,09,28,03,09,1002.85
2013,09,28,03,10,1002.85
2013,09,28,03,11,1002.78
2013,09,28,03,12,1002.78
2013,09,28,03,13,1002.74
2013,09,28,03,14,1002.71
2013,09,28,03,15,1002.74
2013,09,28,03,16,1002.71
2013,09,28,03,17,1002.68
2013,09,28,03,18,1002.68
2013,09,28,03,19,1002.68
2013,09,28,03,20,1002.71
2013,09,28,03,21,1002.68
2013,09,28,03,22,1002.57
2013,09,28,03,23,1002.57
2013,09,28,03,24,1002.51
2013,09,28,03,25,1002.47
2013,09,28,03,26,1002.44
2013,09,28,03,27,1002.47
2013,09,28,03,28,1002.47
2013,09,28,03,29,1002.41
2013,09,28,03,30,1002.34
2013,09,28,03,31,1002.34
2013,09,28,03,32,1002.37
2013,09,28,03,33,1002.34
2013,09,28,03,34,1002.24
2013,09,28,03,35,1002.24
2013,09,28,03,36,1002.20
2013,09,28,03,37,1002.17
2013,09,28,03,38,1002.10
2013,09,28,03,39,1002.10
2013,09,28,03,40,1002.07
2013,09,28,03,41,1002.10
2013,09,28,03,42,1002.07
2013,09,28,03,43,1002.07
2013,09,28,03,44,1002.07
2013,09,28,03,45,1002.03
2013,09,28,03,46,1002.07
2013,09,28,03,47,1002.07
2013,09,28,03,48,1002.03
2013,09,28,03,49,1002.00
2013,09,28,03,50,1002.03
2013,09,28,03,51,1001.93
2013,09,28,03,52,1001.93
2013,09,28,03,53,1001.90
2013,09,28,03,54,1001.83
2013,09,28,03,55,1001.86
2013,09,28,03,56,1001.76
2013,09,28,03,57,1001.73
2013,09,28,03,58,1001.66
2013,09,28,03,59,1001.66
2013,09,28,04,00,1001.59
2013,09,28,04,01,1001.69
2013,09,28,04,02,1001.66
2013,09,28,04,03,1001.63
2013,09,28,04,04,1001.56
2013,09,28,04,05,1001.46
2013,09,28,04,06,1001.49
2013,09,28,04,07,1001.39
2013,09,28,04,08,1001.39
2013,09,28,04,09,1001.36
2013,09,28,04,10,1001.29
2013,09,28,04,11,1001.25
2013,09,28,04,12,1001.22
2013,09,28,04,13,1001.19
2013,09,28,04,14,1001.25
2013,09,28,04,15,1001.19
2013,09,28,04,16,1001.12
2013,09,28,04,17,1001.19
2013,09,28,04,18,1001.15
2013,09,28,04,19,1001.08
2013,09,28,04,20,1000.98
2013,09,28,04,21,1000.98
2013,09,28,04,22,1000.95
2013,09,28,04,23,1000.95
2013,09,28,04,24,1000.88
2013,09,28,04,25,1000.95
2013,09,28,04,26,1000.92
2013,09,28,04,27,1000.97
2013,09,28,04,28,1000.75
2013,09,28,04,29,1000.88
2013,09,28,04,30,1000.85
2013,09,28,04,31,1000.75
2013,09,28,04,32,1000.75
2013,09,28,04,33,1000.75
2013,09,28,04,34,1000.71
2013,09,28,04,35,1000.68
2013,09,28,04,36,1000.64
2013,09,28,04,37,1000.64
2013,09,28,04,38,1000.54
2013,09,28,04,39,1000.44
2013,09,28,04,40,1000.48
2013,09,28,04,41,1000.41
2013,09,28,04,42,1000.37
2013,09,28,04,43,1000.31
2013,09,28,04,44,1000.27
2013,09,28,04,45,1000.27
2013,09,28,04,46,1000.17
2013,09,28,04,47,1000.20
2013,09,28,04,48,1000.17
2013,09,28,04,49,1000.14
2013,09,28,04,50,1000.10
2013,09,28,04,51,1000.10
2013,09,28,04,52,1000.14
2013,09,28,04,53,1000.14
2013,09,28,04,54,1000.10
2013,09,28,04,55,1000.10
2013,09,28,04,56,1000.03
2013,09,28,04,57,1000.03
2013,09,28,04,58,999.97
2013,09,28,04,59,999.93
2013,09,28,05,00,999.93
2013,09,28,05,01,999.87
2013,09,28,05,02,999.83
2013,09,28,05,03,999.83
2013,09,28,05,04,999.83
2013,09,28,05,05,999.76
2013,09,28,05,06,999.73
2013,09,28,05,07,999.76
2013,09,28,05,08,999.73
2013,09,28,05,09,999.66
2013,09,28,05,10,999.66
2013,09,28,05,11,999.70
2013,09,28,05,12,999.63
2013,09,28,05,13,999.63
2013,09,28,05,14,999.59
2013,09,28,05,15,999.63
2013,09,28,05,16,999.53
2013,09,28,05,17,999.49
2013,09,28,05,18,999.49
2013,09,28,05,19,999.53
2013,09,28,05,20,999.53
2013,09,28,05,21,999.53
2013,09,28,05,22,999.49
2013,09,28,05,23,999.49
2013,09,28,05,24,999.46
2013,09,28,05,25,999.46
2013,09,28,05,26,999.46
2013,09,28,05,27,999.36
2013,09,28,05,28,999.36
2013,09,28,05,29,999.29
2013,09,28,05,30,999.29
2013,09,28,05,31,999.32
2013,09,28,05,32,999.26
2013,09,28,05,33,999.32
2013,09,28,05,34,999.26
2013,09,28,05,35,999.15
2013,09,28,05,36,999.18
2013,09,28,05,37,999.09
2013,09,28,05,38,999.12
2013,09,28,05,39,999.05
2013,09,28,05,40,999.02
2013,09,28,05,41,998.99
2013,09,28,05,42,998.88
2013,09,28,05,43,998.95
2013,09,28,05,44,998.92
2013,09,28,05,45,998.88
2013,09,28,05,46,998.85
2013,09,28,05,47,998.92
2013,09,28,05,48,998.82
2013,09,28,05,49,998.78
2013,09,28,05,50,998.68
2013,09,28,05,51,998.78
2013,09,28,05,52,998.68
2013,09,28,05,53,998.65
2013,09,28,05,54,998.61
2013,09,28,05,55,998.58
2013,09,28,05,56,998.61
2013,09,28,05,57,998.65
2013,09,28,05,58,998.58
2013,09,28,05,59,998.58
2013,09,28,06,00,998.58
2013,09,28,06,01,998.54
2013,09,28,06,02,998.44
2013,09,28,06,03,998.58
2013,09,28,06,04,998.54
2013,09,28,06,05,998.58
2013,09,28,06,06,998.58
2013,09,28,06,07,998.41
2013,09,28,06,08,998.48
2013,09,28,06,09,998.41
2013,09,28,06,10,998.48
2013,09,28,06,11,998.41
2013,09,28,06,12,998.44
2013,09,28,06,13,998.41
2013,09,28,06,14,998.31
2013,09,28,06,15,998.31
2013,09,28,06,16,998.31
2013,09,28,06,17,998.27
2013,09,28,06,18,998.21
2013,09,28,06,19,998.17
2013,09,28,06,20,998.14
2013,09,28,06,21,998.14
2013,09,28,06,22,998.04
2013,09,28,06,23,998.04
2013,09,28,06,24,997.97
2013,09,28,06,25,997.94
2013,09,28,06,26,997.80
2013,09,28,06,27,997.77
2013,09,28,06,28,997.83
2013,09,28,06,29,997.73
2013,09,28,06,30,997.73
2013,09,28,06,31,997.63
2013,09,28,06,32,997.66
2013,09,28,06,33,997.63
2013,09,28,06,34,997.60
2013,09,28,06,35,997.60
2013,09,28,06,36,997.63
2013,09,28,06,37,997.63
2013,09,28,06,38,997.60
2013,09,28,06,39,997.50
2013,09,28,06,40,997.53
2013,09,28,06,41,997.46
2013,09,28,06,42,997.43
2013,09,28,06,43,997.43
2013,09,28,06,44,997.43
2013,09,28,06,45,997.39
2013,09,28,06,46,997.33
2013,09,28,06,47,997.33
2013,09,28,06,48,997.33
2013,09,28,06,49,997.29
2013,09,28,06,50,997.29
2013,09,28,06,51,997.22
2013,09,28,06,52,997.22
2013,09,28,06,53,997.16
2013,09,28,06,54,997.19
2013,09,28,06,55,997.16
2013,09,28,06,56,997.09
2013,09,28,06,57,997.05
2013,09,28,06,58,997.02
2013,09,28,06,59,997.02
2013,09,28,07,00,996.92
2013,09,28,07,01,996.89
2013,09,28,07,02,996.85
2013,09,28,07,03,996.85
2013,09,28,07,04,996.78
2013,09,28,07,05,996.75
2013,09,28,07,06,996.68
2013,09,28,07,07,996.61
2013,09,28,07,08,996.65
2013,09,28,07,09,996.72
2013,09,28,07,10,996.58
2013,09,28,07,11,996.51
2013,09,28,07,12,996.51
2013,09,28,07,13,996.45
2013,09,28,07,14,996.41
2013,09,28,07,15,996.41
2013,09,28,07,16,996.38
2013,09,28,07,17,996.38
2013,09,28,07,18,996.28
2013,09,28,07,19,996.31
2013,09,28,07,20,996.24
2013,09,28,07,21,996.21
2013,09,28,07,22,996.21
2013,09,28,07,23,996.14
2013,09,28,07,24,996.21
2013,09,28,07,25,996.11
2013,09,28,07,26,996.04
2013,09,28,07,27,995.97
2013,09,28,07,28,995.94
2013,09,28,07,29,996.01
2013,09,28,07,30,996.07
2013,09,28,07,31,996.04
2013,09,28,07,32,996.01
2013,09,28,07,33,995.97
2013,09,28,07,34,995.97
2013,09,28,07,35,995.94
2013,09,28,07,36,995.94
2013,09,28,07,37,995.90
2013,09,28,07,38,995.90
2013,09,28,07,39,995.90
2013,09,28,07,40,995.87
2013,09,28,07,41,995.94
2013,09,28,07,42,995.87
2013,09,28,07,43,995.90
2013,09,28,07,44,995.84
2013,09,28,07,45,995.84
2013,09,28,07,46,995.80
2013,09,28,07,47,995.80
2013,09,28,07,48,995.77
2013,09,28,07,49,995.70
2013,09,28,07,50,995.77
2013,09,28,07,51,995.73
2013,09,28,07,52,995.73
2013,09,28,07,53,995.70
2013,09,28,07,54,995.73
2013,09,28,07,55,995.70
2013,09,28,07,56,995.80
2013,09,28,07,57,995.67
2013,09,28,07,58,995.63
2013,09,28,07,59,995.67
2013,09,28,08,00,995.60
2013,09,28,08,01,995.56
2013,09,28,08,02,995.50
2013,09,28,08,03,995.43
2013,09,28,08,04,995.40
2013,09,28,08,05,995.33
2013,09,28,08,06,995.26
2013,09,28,08,07,995.33
2013,09,28,08,08,995.23
2013,09,28,08,09,995.23
2013,09,28,08,10,995.29
2013,09,28,08,11,995.19
2013,09,28,08,12,995.29
2013,09,28,08,13,995.26
2013,09,28,08,14,995.23
2013,09,28,08,15,995.33
2013,09,28,08,16,995.23
2013,09,28,08,17,995.19
2013,09,28,08,18,995.16
2013,09,28,08,19,995.16
2013,09,28,08,20,995.09
2013,09,28,08,21,995.09
2013,09,28,08,22,994.99
2013,09,28,08,23,994.92
2013,09,28,08,24,994.89
2013,09,28,08,25,994.92
2013,09,28,08,26,994.92
2013,09,28,08,27,994.96
2013,09,28,08,28,994.96
2013,09,28,08,29,994.96
2013,09,28,08,30,994.92
2013,09,28,08,31,994.89
2013,09,28,08,32,994.85
2013,09,28,08,33,994.85
2013,09,28,08,34,994.82
2013,09,28,08,35,994.79
2013,09,28,08,36,994.75
2013,09,28,08,37,994.75
2013,09,28,08,38,994.79
2013,09,28,08,39,994.79
2013,09,28,08,40,994.72
2013,09,28,08,41,994.62
2013,09,28,08,42,994.62
2013,09,28,08,43,994.41
2013,09,28,08,44,994.34
2013,09,28,08,45,994.14
2013,09,28,08,46,994.04
2013,09,28,08,47,994.11
2013,09,28,08,48,994.11
2013,09,28,08,49,994.11
2013,09,28,08,50,994.11
2013,09,28,08,51,994.11
2013,09,28,08,52,994.07
2013,09,28,08,53,994.14
2013,09,28,08,54,994.07
2013,09,28,08,55,994.07
2013,09,28,08,56,994.11
2013,09,28,08,57,994.11
2013,09,28,08,58,994.11
2013,09,28,08,59,994.11
2013,09,28,09,00,994.04
2013,09,28,09,01,994.07
2013,09,28,09,02,994.07
2013,09,28,09,03,994.01
2013,09,28,09,04,993.97
2013,09,28,09,05,993.94
2013,09,28,09,06,993.94
2013,09,28,09,07,993.91
2013,09,28,09,08,993.94
2013,09,28,09,09,993.91
2013,09,28,09,10,993.87
2013,09,28,09,11,993.87
2013,09,28,09,12,993.80
2013,09,28,09,13,993.80
2013,09,28,09,14,993.80
2013,09,28,09,15,993.77
2013,09,28,09,16,993.74
2013,09,28,09,17,993.63
2013,09,28,09,18,993.60
2013,09,28,09,19,993.50
2013,09,28,09,20,993.42
2013,09,28,09,21,993.33
2013,09,28,09,22,993.26
2013,09,28,09,23,993.16
2013,09,28,09,24,993.06
2013,09,28,09,25,993.03
2013,09,28,09,26,992.96
2013,09,28,09,27,992.92
2013,09,28,09,28,992.96
2013,09,28,09,29,992.92
2013,09,28,09,30,992.96
2013,09,28,09,31,993.03
2013,09,28,09,32,992.96
2013,09,28,09,33,992.92
2013,09,28,09,34,992.96
2013,09,28,09,35,992.96
2013,09,28,09,36,992.92
2013,09,28,09,37,992.96
2013,09,28,09,38,992.96
2013,09,28,09,39,992.99
2013,09,28,09,40,993.03
2013,09,28,09,41,993.03
2013,09,28,09,42,992.96
2013,09,28,09,43,992.92
2013,09,28,09,44,992.89
2013,09,28,09,45,992.89
2013,09,28,09,46,992.75
2013,09,28,09,47,992.75
2013,09,28,09,48,992.69
2013,09,28,09,49,992.68
2013,09,28,09,50,992.58
2013,09,28,09,51,992.62
2013,09,28,09,52,992.58
2013,09,28,09,53,992.55
2013,09,28,09,54,992.52
2013,09,28,09,55,992.48
2013,09,28,09,56,992.52
2013,09,28,09,57,992.42
2013,09,28,09,58,992.38
2013,09,28,09,59,992.35
2013,09,28,10,00,992.28
2013,09,28,10,01,992.28
2013,09,28,10,02,992.25
2013,09,28,10,03,992.21
2013,09,28,10,04,992.14
2013,09,28,10,05,992.18
2013,09,28,10,06,992.08
2013,09,28,10,07,992.04
2013,09,28,10,08,992.01
2013,09,28,10,09,991.98
2013,09,28,10,10,991.94
2013,09,28,10,11,991.98
2013,09,28,10,12,991.94
2013,09,28,10,13,991.94
2013,09,28,10,14,991.87
2013,09,28,10,15,991.94
2013,09,28,10,16,991.87
2013,09,28,10,17,991.86
2013,09,28,10,18,991.77
2013,09,28,10,19,991.74
2013,09,28,10,20,991.77
2013,09,28,10,21,991.81
2013,09,28,10,22,991.70
2013,09,28,10,23,991.70
2013,09,28,10,24,991.64
2013,09,28,10,25,991.57
2013,09,28,10,26,991.53
2013,09,28,10,27,991.53
2013,09,28,10,28,991.53
2013,09,28,10,29,991.43
2013,09,28,10,30,991.50
2013,09,28,10,31,991.43
2013,09,28,10,32,991.43
2013,09,28,10,33,991.53
2013,09,28,10,34,991.53
2013,09,28,10,35,991.60
2013,09,28,10,36,991.60
2013,09,28,10,37,991.64
2013,09,28,10,38,991.50
2013,09,28,10,39,991.43
2013,09,28,10,40,991.50
2013,09,28,10,41,991.23
2013,09,28,10,42,991.33
2013,09,28,10,43,991.43
2013,09,28,10,44,991.43
2013,09,28,10,45,991.31
2013,09,28,10,46,991.37
2013,09,28,10,47,991.43
2013,09,28,10,48,991.50
2013,09,28,10,49,991.50
2013,09,28,10,50,991.37
2013,09,28,10,51,991.23
2013,09,28,10,52,991.16
2013,09,28,10,53,991.09
2013,09,28,10,54,991.06
2013,09,28,10,55,990.99
2013,09,28,10,56,990.96
2013,09,28,10,57,990.86
2013,09,28,10,58,990.76
2013,09,28,10,59,990.73
2013,09,28,11,00,990.86
2013,09,28,11,01,990.73
2013,09,28,11,02,990.59
2013,09,28,11,03,990.55
2013,09,28,11,04,990.45
2013,09,28,11,05,990.45
2013,09,28,11,06,990.45
2013,09,28,11,07,990.52
2013,09,28,11,08,990.49
2013,09,28,11,09,990.65
2013,09,28,11,10,990.45
2013,09,28,11,11,990.55
2013,09,28,11,12,990.59
2013,09,28,11,13,990.52
2013,09,28,11,14,990.59
2013,09,28,11,15,990.62
2013,09,28,11,16,990.52
2013,09,28,11,17,990.55
2013,09,28,11,18,990.52
2013,09,28,11,19,990.52
2013,09,28,11,20,990.55
2013,09,28,11,21,990.45
2013,09,28,11,22,990.45
2013,09,28,11,23,990.42
2013,09,28,11,24,990.52
2013,09,28,11,25,990.45
2013,09,28,11,26,990.42
2013,09,28,11,27,990.45
2013,09,28,11,28,990.42
2013,09,28,11,29,990.38
2013,09,28,11,30,990.32
2013,09,28,11,31,990.25
2013,09,28,11,32,990.25
2013,09,28,11,33,990.18
2013,09,28,11,34,990.21
2013,09,28,11,35,990.25
2013,09,28,11,36,990.21
2013,09,28,11,37,990.18
2013,09,28,11,38,990.11
2013,09,28,11,39,990.15
2013,09,28,11,40,990.11
2013,09,28,11,41,990.14
2013,09,28,11,42,990.01
2013,09,28,11,43,989.98
2013,09,28,11,44,989.94
2013,09,28,11,45,989.94
2013,09,28,11,46,989.94
2013,09,28,11,47,989.88
2013,09,28,11,48,989.77
2013,09,28,11,49,989.81
2013,09,28,11,50,989.84
2013,09,28,11,51,989.81
2013,09,28,11,52,989.77
2013,09,28,11,53,989.74
2013,09,28,11,54,989.71
2013,09,28,11,55,989.71
2013,09,28,11,56,989.71
2013,09,28,11,57,989.67
2013,09,28,11,58,989.67
2013,09,28,11,59,989.67
2013,09,28,12,00,989.60
2013,09,28,12,01,989.64
2013,09,28,12,02,989.57
2013,09,28,12,03,989.57
2013,09,28,12,04,989.50
2013,09,28,12,05,989.54
2013,09,28,12,06,989.57
2013,09,28,12,07,989.50
2013,09,28,12,08,989.50
2013,09,28,12,09,989.47
2013,09,28,12,10,989.44
2013,09,28,12,11,989.37
2013,09,28,12,12,989.40
2013,09,28,12,13,989.33
2013,09,28,12,14,989.33
2013,09,28,12,15,989.30
2013,09,28,12,16,989.30
2013,09,28,12,17,989.33
2013,09,28,12,18,989.33
2013,09,28,12,19,989.30
2013,09,28,12,20,989.30
2013,09,28,12,21,989.30
2013,09,28,12,22,989.20
2013,09,28,12,23,989.13
2013,09,28,12,24,989.13
2013,09,28,12,25,989.10
2013,09,28,12,26,989.00
2013,09,28,12,27,988.96
2013,09,28,12,28,988.89
2013,09,28,12,29,988.93
2013,09,28,12,30,988.96
2013,09,28,12,31,988.86
2013,09,28,12,32,988.89
2013,09,28,12,33,988.93
2013,09,28,12,34,988.89
2013,09,28,12,35,988.86
2013,09,28,12,36,988.89
2013,09,28,12,37,988.93
2013,09,28,12,38,988.89
2013,09,28,12,39,988.89
2013,09,28,12,40,988.83
2013,09,28,12,41,988.83
2013,09,28,12,42,988.88
2013,09,28,12,43,988.76
2013,09,28,12,44,988.76
2013,09,28,12,45,988.72
2013,09,28,12,46,988.66
2013,09,28,12,47,988.62
2013,09,28,12,48,988.62
2013,09,28,12,49,988.52
2013,09,28,12,50,988.52
2013,09,28,12,51,988.52
2013,09,28,12,52,988.49
2013,09,28,12,53,988.39
2013,09,28,12,54,988.32
2013,09,28,12,55,988.28
2013,09,28,12,56,988.28
2013,09,28,12,57,988.25
2013,09,28,12,58,988.25
2013,09,28,12,59,988.22
2013,09,28,13,00,988.18
2013,09,28,13,01,988.11
2013,09,28,13,02,988.08
2013,09,28,13,03,988.15
2013,09,28,13,04,988.01
2013,09,28,13,05,988.08
2013,09,28,13,06,988.01
2013,09,28,13,07,987.95
2013,09,28,13,08,987.84
2013,09,28,13,09,987.91
2013,09,28,13,10,987.71
2013,09,28,13,11,987.81
2013,09,28,13,12,987.74
2013,09,28,13,13,987.64
2013,09,28,13,14,987.71
2013,09,28,13,15,987.74
2013,09,28,13,16,987.84
2013,09,28,13,17,988.08
2013,09,28,13,18,988.12
2013,09,28,13,19,989.06
2013,09,28,13,20,989.03
2013,09,28,13,21,988.96
2013,09,28,13,22,989.10
2013,09,28,13,23,989.10
2013,09,28,13,24,989.27
2013,09,28,13,25,989.20
2013,09,28,13,26,989.27
2013,09,28,13,27,989.30
2013,09,28,13,28,989.27
2013,09,28,13,29,989.30
2013,09,28,13,30,989.37
2013,09,28,13,31,989.40
2013,09,28,13,32,989.44
2013,09,28,13,33,989.37
2013,09,28,13,34,989.33
2013,09,28,13,35,989.33
2013,09,28,13,36,989.37
2013,09,28,13,37,989.37
2013,09,28,13,38,989.44
2013,09,28,13,39,989.37
2013,09,28,13,40,989.33
2013,09,28,13,41,989.33
2013,09,28,13,42,989.30
2013,09,28,13,43,989.30
2013,09,28,13,44,989.33
2013,09,28,13,45,989.33
2013,09,28,13,46,989.30
2013,09,28,13,47,989.33
2013,09,28,13,48,989.37
2013,09,28,13,49,989.37
2013,09,28,13,50,989.23
2013,09,28,13,51,989.23
2013,09,28,13,52,989.16
2013,09,28,13,53,989.30
2013,09,28,13,54,989.27
2013,09,28,13,55,989.27
2013,09,28,13,56,989.23
2013,09,28,13,57,989.23
2013,09,28,13,58,989.23
2013,09,28,13,59,989.23
2013,09,28,14,00,989.20
2013,09,28,14,01,989.16
2013,09,28,14,02,989.23
2013,09,28,14,03,989.20
2013,09,28,14,04,989.20
2013,09,28,14,05,989.23
2013,09,28,14,06,989.20
2013,09,28,14,07,989.23
2013,09,28,14,08,989.20
2013,09,28,14,09,989.23
2013,09,28,14,10,989.20
2013,09,28,14,11,989.20
2013,09,28,14,12,989.23
2013,09,28,14,13,989.20
2013,09,28,14,14,989.23
2013,09,28,14,15,989.27
2013,09,28,14,16,989.30
2013,09,28,14,17,989.30
2013,09,28,14,18,989.23
2013,09,28,14,19,989.16
2013,09,28,14,20,989.13
2013,09,28,14,21,989.13
2013,09,28,14,22,989.13
2013,09,28,14,23,989.13
2013,09,28,14,24,989.20
2013,09,28,14,25,989.16
2013,09,28,14,26,989.20
2013,09,28,14,27,989.23
2013,09,28,14,28,989.27
2013,09,28,14,29,989.30
2013,09,28,14,30,989.30
2013,09,28,14,31,989.33
2013,09,28,14,32,989.40
2013,09,28,14,33,989.37
2013,09,28,14,34,989.50
2013,09,28,14,35,989.57
2013,09,28,14,36,989.60
2013,09,28,14,37,989.64
2013,09,28,14,38,989.64
2013,09,28,14,39,989.64
2013,09,28,14,40,989.67
2013,09,28,14,41,989.77
2013,09,28,14,42,989.84
2013,09,28,14,43,989.84
2013,09,28,14,44,989.84
2013,09,28,14,45,989.84
2013,09,28,14,46,989.94
2013,09,28,14,47,989.94
2013,09,28,14,48,989.98
2013,09,28,14,49,989.94
2013,09,28,14,50,989.98
2013,09,28,14,51,990.04
2013,09,28,14,52,990.15
2013,09,28,14,53,990.18
2013,09,28,14,54,990.21
2013,09,28,14,55,990.28
2013,09,28,14,56,990.32
2013,09,28,14,57,990.35
2013,09,28,14,58,990.38
2013,09,28,14,59,990.38
2013,09,28,15,00,990.38
2013,09,28,15,01,990.35
2013,09,28,15,02,990.32
2013,09,28,15,03,990.38
2013,09,28,15,04,990.42
2013,09,28,15,05,990.42
2013,09,28,15,06,990.49
2013,09,28,15,07,990.55
2013,09,28,15,08,990.62
2013,09,28,15,09,990.62
2013,09,28,15,10,990.62
2013,09,28,15,11,990.69
2013,09,28,15,12,990.72
2013,09,28,15,13,990.72
2013,09,28,15,14,990.65
2013,09,28,15,15,990.72
2013,09,28,15,16,990.72
2013,09,28,15,17,990.62
2013,09,28,15,18,990.65
2013,09,28,15,19,990.62
2013,09,28,15,20,990.62
2013,09,28,15,21,990.59
2013,09,28,15,22,990.55
2013,09,28,15,23,990.62
2013,09,28,15,24,990.65
2013,09,28,15,25,990.59
2013,09,28,15,26,990.55
2013,09,28,15,27,990.59
2013,09,28,15,28,990.59
2013,09,28,15,29,990.49
2013,09,28,15,30,990.49
2013,09,28,15,31,990.49
2013,09,28,15,32,990.42
2013,09,28,15,33,990.42
2013,09,28,15,34,990.42
2013,09,28,15,35,990.45
2013,09,28,15,36,990.38
2013,09,28,15,37,990.38
2013,09,28,15,38,990.38
2013,09,28,15,39,990.41
2013,09,28,15,40,990.28
2013,09,28,15,41,990.25
2013,09,28,15,42,990.28
2013,09,28,15,43,990.32
2013,09,28,15,44,990.32
2013,09,28,15,45,990.38
2013,09,28,15,46,990.38
2013,09,28,15,47,990.38
2013,09,28,15,48,990.45
2013,09,28,15,49,990.45
2013,09,28,15,50,990.42
2013,09,28,15,51,990.35
2013,09,28,15,52,990.42
2013,09,28,15,53,990.42
2013,09,28,15,54,990.35
2013,09,28,15,55,990.25
2013,09,28,15,56,990.25
2013,09,28,15,57,990.21
2013,09,28,15,58,990.21
2013,09,28,15,59,990.35
2013,09,28,16,00,990.45
2013,09,28,16,01,990.45
2013,09,28,16,02,990.35
2013,09,28,16,03,990.32
2013,09,28,16,04,990.32
2013,09,28,16,05,990.38
2013,09,28,16,06,990.42
2013,09,28,16,07,990.45
2013,09,28,16,08,990.55
2013,09,28,16,09,990.59
2013,09,28,16,10,990.52
2013,09,28,16,11,990.55
2013,09,28,16,12,990.59
2013,09,28,16,13,990.59
2013,09,28,16,14,990.59
2013,09,28,16,15,990.62
2013,09,28,16,16,990.59
2013,09,28,16,17,990.59
2013,09,28,16,18,990.62
2013,09,28,16,19,990.65
2013,09,28,16,20,990.59
2013,09,28,16,21,990.62
2013,09,28,16,22,990.59
2013,09,28,16,23,990.59